#timestamp,LO_Frequency,Hit,StdDev 
1595325775.2,286046979.8,P
1595325795.9,286046980.1,P
1595325815.7,286046979.2,P
1595325835.6,286046977.5,Y
1595325855.4,286046998.9,P
1595325875.2,286046997.1,N
1595325895.1,286046999.6,N
1595325896.0,286046999.6,N
1595325915.8,286046996.5,N
1595325935.7,286046997.2,N
1595325955.5,286046997.1,N
1595325975.3,286046999.5,N
1595325995.2,286046999.1,N
1595326015.0,286046996.9,N
1595326015.9,286046996.9,N
1595326035.7,286046999.1,N
1595326055.6,286046999.5,N
1595326075.4,286046996.8,N
1595326095.3,286046997.3,N
1595326115.1,286046996.1,N
1595326135.8,286046994.0,N
1595326155.7,286046994.4,N
1595326175.5,286046994.5,N
1595326195.4,286046991.9,N
1595326215.2,286046994.7,N
1595326235.0,286046994.3,N
1595326235.9,286046994.3,N
1595326255.8,286046993.1,N
1595326275.6,286046990.6,N
1595326295.4,286046993.1,N
1595326315.3,286046991.9,N
1595326335.1,286046994.7,N
1595326355.9,286046994.5,N
1595326375.7,286046994.7,N
1595326395.5,286046993.9,N
1595326415.4,286046993.5,N
1595326435.2,286046994.0,N
1595326455.0,286046994.4,N
1595326455.9,286046994.4,N
1595326475.8,286046990.2,Y
1595326495.6,286046992.1,P
1595326515.5,286046992.3,P
1595326535.3,286046991.7,P
1595326555.1,286046990.5,Y
1595326575.9,286046998.3,P
1595326595.7,286046996.5,N
1595326615.5,286046997.2,N
1595326635.4,286046997.9,N
1595326655.2,286046997.4,N
1595326705.1,286046995.8,E
1595326715.0,286046997.6,N
1595326715.9,286046997.6,P
1595326735.8,286046999.4,P
1595326755.6,286047000.9,N
1595326775.4,286047000.3,N
1595326795.3,286046998.9,N
1595326815.1,286046997.0,N
1595326835.8,286046997.8,N
1595326855.7,286046995.3,Y
1595326875.5,286046998.0,P
1595326895.4,286046995.4,P
1595326915.2,286046995.2,P
1595326935.0,286046995.8,N
1595326935.9,286046995.8,N
1595326955.8,286046995.1,Y
1595326975.6,286046999.8,P
1595326995.4,286047000.0,N
1595327015.3,286047000.2,N
1595327035.1,286047002.7,N
1595327055.9,286047000.9,N
1595327075.7,286047000.2,N
1595327095.5,286046998.6,N
1595327115.4,286046998.4,N
1595327135.2,286046997.0,N
1595327155.0,286046994.9,N
1595327156.0,286046994.9,N
1595327175.8,286046995.2,N
1595327195.6,286046995.3,N
1595327215.5,286046996.8,N
1595327235.3,286046997.1,N
1595327255.1,286046997.7,N
1595327275.9,286046997.6,N
1595327295.7,286046996.1,N
1595327315.5,286046996.1,N
1595327335.4,286046993.4,Y
1595327355.2,286046997.5,P
1595327375.1,286046997.5,P
1595327376.0,286046997.5,P
1595327395.8,286046997.1,Y
1595327415.6,286046998.7,P
1595327435.5,286046997.1,P
1595327455.3,286046995.7,P
1595327475.2,286046994.8,Y
1595327495.9,286046995.1,P
1595327515.7,286046995.9,P
1595327535.6,286046994.3,P
1595327555.4,286046991.7,Y
1595327575.2,286046996.8,P
1595327595.1,286046997.6,P
1595327596.0,286046997.6,P
1595327615.8,286046997.4,Y
1595327635.7,286047000.4,P
1595327655.5,286047000.5,N
1595327675.3,286047000.3,N
1595327695.2,286047000.2,N
1595327715.0,286047002.7,N
1595327715.9,286047002.7,N
1595327735.8,286047000.0,N
1595327755.6,286047000.1,N
1595327775.4,286047000.0,N
1595327795.3,286047000.9,N
1595327815.1,286047001.0,N
1595327835.8,286047001.2,N
1595327855.7,286047001.1,N
1595327875.5,286047000.3,N
1595327895.4,286047000.0,N
1595327915.2,286047000.9,N
1595327935.0,286046998.7,N
1595327935.9,286046998.7,N
1595327955.8,286046999.1,N
1595327975.6,286046999.2,N
1595327995.4,286046999.4,N
1595328015.3,286046997.0,N
1595328035.1,286046999.2,N
1595328055.9,286046997.9,N
1595328075.7,286046997.5,N
1595328095.5,286046995.0,Y
1595328115.4,286046997.3,P
1595328135.2,286046997.4,N
1595328155.1,286046996.9,N
1595328156.0,286046996.9,N
1595328175.8,286046999.3,N
1595328195.6,286046999.4,N
1595328215.5,286046999.5,N
1595328235.3,286046997.3,N
1595328255.1,286046996.9,N
1595328275.9,286046997.4,N
1595328295.7,286046998.0,N
1595328315.6,286046995.3,Y
1595328335.4,286046999.6,P
1595328355.2,286046995.9,P
1595328375.1,286046996.2,N
1595328376.0,286046996.2,N
1595328395.8,286046993.5,Y
1595328415.7,286046995.4,P
1595328435.5,286046996.2,P
1595328455.3,286046993.5,P
1595328475.2,286046993.8,Y
1595328495.0,286046998.2,P
1595328495.9,286046998.2,N
1595328515